Location: Newark
(48.6461°N, 4.3644°W)
Time: 14:44:38
(UTC+00:00)

Transit 4A - Pass Details

Date: 02 February 2020
Orbit: 872 x 973 km, 66.8° (Epoch: 23 February)

Event Time Altitude Azimuth Distance (km) Brightness Sun altitude
Rises 03:46:03 0° 168° (SSE) 3,537 - -39.5°
Reaches altitude 10° 03:49:12 10° 152° (SSE) 2,582 - -39.0°
Exits shadow 03:52:12 19° 123° (ESE) 1,991 9.9 -38.5°
Maximum altitude 03:53:26 20° 107° (ESE) 1,924 9.9 -38.3°
Drops below altitude 10° 03:57:38 10° 61° (ENE) 2,552 10.9 -37.7°
Sets 04:00:42 0° 46° (NE) 3,485 11.7 -37.2°
